Probability
10 10 10 10 11 10 8 5 4 5 6 6 6 6 6 6 4 2 1 2 3 3 3 2 1 0 0 0 0 0 0 0 0 0 0 0 0 0 0 0 0 0 0
11 10 10 10 11 11 9 7 5 6 6 7 7 7 6 6 4 3 1 1 2 3 3 2 1 0 0 0 0 0 0 0 0 0 0 0 0 0 0 0 0 0 0
10 10 10 10 11 11 10 9 8 7 7 8 8 7 7 7 6 4 3 1 1 1 2 1 0 0 0 0 0 0 0 0 0 0 0 0 0 0 0 0 0 0 0
10 10 10 11 11 11 10 9 8 6 6 6 7 7 8 9 8 5 3 2 0 0 1 1 0 0 0 0 0 0 0 0 0 0 0 0 0 0 0 0 0 0 0
10 11 11 12 12 11 9 8 7 5 4 4 5 6 7 7 6 4 2 1 0 0 1 1 0 0 0 0 0 0 0 0 0 0 0 0 0 0 0 0 0 0 0
11 12 12 11 11 10 9 8 6 5 4 3 3 5 5 4 3 2 0 0 0 0 1 1 0 0 0 0 0 0 0 0 0 0 0 0 0 0 0 0 0 0 0
11 12 12 10 10 10 9 9 7 6 5 3 2 3 3 2 1 0 0 0 0 0 0 0 0 0 0 0 0 0 0 0 0 0 0 0 0 0 0 0 0 0 0
12 12 12 11 10 10 10 9 8 6 4 3 2 2 1 1 0 0 0 0 0 0 0 0 0 0 0 0 0 0 0 0 0 0 0 0 0 0 0 0 0 0 0
13 12 12 11 11 10 9 8 8 6 3 2 1 1 0 0 0 0 0 0 0 0 0 0 0 0 0 0 0 0 0 0 0 0 0 0 0 0 0 0 0 0 0
11 10 10 11 11 9 7 7 6 4 1 1 0 0 0 0 0 0 0 0 0 0 0 0 0 0 0 0 0 0 0 0 0 0 0 0 0 0 0 0 0 0 0
7 6 7 7 8 7 6 5 4 2 1 0 0 0 0 0 0 0 0 0 0 0 0 0 0 0 0 0 0 0 0 0 0 0 0 0 0 0 0 0 0 0 0
4 4 4 4 4 5 5 4 3 2 1 1 0 0 0 0 0 0 0 0 0 0 0 0 0 0 0 0 0 0 0 0 0 0 0 0 0 0 0 0 0 0 0
3 3 3 3 3 3 4 3 3 2 2 1 0 0 0 0 0 0 0 0 0 0 0 0 0 0 0 0 0 0 0 0 0 0 0 0 0 0 0 0 0 0 0
2 2 2 2 2 2 2 2 2 1 1 0 0 0 0 0 0 0 0 0 0 0 0 0 0 0 0 0 0 0 0 0 0 0 0 0 0 0 0 0 0 0 0
1 1 1 1 1 1 1 1 1 0 0 0 0 0 0 0 0 0 0 0 0 0 0 0 0 0 0 0 0 0 0 0 0 0 0 0 0 0 0 0 0 0 0
0 0 0 0 0 0 0 0 0 0 0 0 0 0 0 0 0 0 0 0 0 0 0 0 0 0 0 0 0 0 0 0 0 0 0 0 0 0 0 0 0 0 0
0 0 0 0 0 0 0 0 0 0 0 0 0 0 0 0 0 0 0 0 0 0 0 0 0 0 0 0 0 0 0 0 0 0 0 0 0 0 0 0 0 0 0
0 0 0 0 0 0 0 0 0 0 0 0 0 0 0 0 0 0 0 0 0 0 0 0 0 0 0 0 0 0 0 0 0 0 0 0 0 0 0 0 0 0 0
0 0 0 0 0 0 0 0 0 0 0 0 0 0 0 0 0 0 0 0 0 0 0 0 0 0 0 0 0 0 0 0 0 0 0 0 0 0 0 0 0 0 0
0 0 0 0 0 0 0 0 0 0 0 0 0 0 0 0 0 0 0 0 0 0 0 0 0 0 0 0 0 0 0 0 0 0 0 0 0 0 0 0 0 0 0
0 0 0 0 0 0 0 0 0 0 0 0 0 0 0 0 0 0 0 0 0 0 0 0 0 0 0 0 0 0 0 0 0 0 0 0 0 0 0 0 0 0 0
0 0 0 0 0 0 0 0 0 0 0 0 0 0 0 0 0 0 0 0 0 0 0 0 0 0 0 0 0 0 0 0 0 0 0 0 0 0 0 0 0 0 0
0 0 0 0 0 0 0 0 0 0 0 0 0 0 0 0 0 0 0 0 0 0 0 0 0 0 0 0 0 0 0 0 0 0 0 0 0 0 0 0 0 0 0
0 0 0 0 0 0 0 0 0 0 0 0 0 0 0 0 0 0 0 0 0 0 0 0 0 0 0 0 0 0 0 0 0 0 0 0 0 0 0 0 0 0 0
0 0 0 0 0 0 0 0 0 0 0 0 0 0 0 0 0 0 0 0 0 0 0 0 0 0 0 0 0 0 0 0 0 0 0 0 0 0 0 0 0 0 0
0 0 0 0 0 0 0 0 0 0 0 0 0 0 0 0 0 0 0 0 0 0 0 0 0 0 0 0 0 0 0 0 0 0 0 0 0 0 0 0 0 0 0
Wind_Speed
7 7 7 7 7 6 6 7 7 6 7 8 8 8 8 7 7 6 6 5 6 5 4 5 4 3 2 2 1 2 2 3 3 3 2 2 2 3 3 3 4 5 5
6 7 7 7 6 6 6 6 6 6 6 7 8 7 8 7 7 7 7 7 6 6 5 5 5 3 3 2 2 2 2 3 3 3 2 2 2 3 3 4 4 5 5
5 6 7 6 7 7 6 6 6 7 6 7 7 8 7 7 6 6 6 6 6 6 6 6 5 4 4 3 3 3 2 2 2 2 3 2 2 1 1 3 4 3 5
5 6 6 7 7 6 5 5 6 6 7 7 6 6 6 5 5 5 5 5 5 5 5 5 5 5 6 5 4 4 3 2 1 1 2 2 2 2 1 2 3 3 4
5 5 5 5 5 5 5 5 5 5 6 5 5 4 4 4 4 5 5 5 4 4 4 4 5 6 7 5 4 4 3 3 2 2 3 2 2 2 2 2 3 3 4
6 6 5 5 5 5 5 5 5 5 5 5 4 4 3 3 4 6 6 4 4 4 4 3 3 4 5 6 6 6 6 5 4 3 3 4 4 4 3 3 3 2 4
6 6 5 5 5 4 5 5 5 5 4 4 4 4 3 2 3 4 6 4 4 4 4 3 2 2 3 3 4 5 6 7 7 5 5 6 5 5 4 4 4 4 5
6 5 5 6 6 5 4 5 4 4 4 4 4 4 3 2 3 3 4 3 2 2 2 3 2 2 1 2 2 2 3 4 5 5 6 6 6 5 5 5 5 4 4
6 5 5 6 6 5 5 4 4 4 4 3 4 4 4 2 2 3 4 3 2 1 1 1 1 1 1 1 1 2 3 4 4 5 6 7 8 8 5 2 2 2 4
5 5 4 5 5 5 5 4 4 4 4 4 4 3 4 3 3 3 4 2 2 1 1 1 1 0 1 0 1 2 3 4 3 3 3 4 5 5 6 5 4 4 4
5 5 5 4 5 5 5 4 4 5 5 5 5 4 4 4 4 5 4 2 1 1 1 1 1 2 2 2 1 2 3 3 2 2 3 3 3 2 2 3 3 4 4
6 7 6 5 4 4 5 5 5 6 6 5 6 5 4 4 5 5 5 3 3 2 0 0 1 3 3 3 2 1 2 2 1 1 2 3 3 3 3 3 4 4 5
8 7 6 6 6 6 6 6 5 5 5 5 5 4 3 3 4 6 5 4 4 2 1 2 3 3 3 2 3 3 2 1 1 1 2 3 3 3 3 3 4 4 4
9 7 6 7 7 7 5 5 5 4 4 5 4 4 3 3 3 3 3 3 4 3 2 3 4 5 3 2 3 2 1 1 1 2 3 3 3 3 3 3 3 3 3
9 8 7 7 7 8 7 6 6 4 3 5 4 3 4 2 1 2 2 2 2 2 2 3 3 3 4 3 3 2 2 1 1 2 2 3 3 3 3 3 2 2 3
8 7 5 6 6 6 6 7 11 9 10 10 7 5 3 4 4 5 5 5 5 4 4 3 3 2 2 2 2 2 2 2 2 2 2 3 3 4 4 4 3 3 4
8 6 5 5 5 5 5 6 5 7 10 10 9 8 7 6 7 7 7 7 6 6 4 3 2 2 2 2 2 2 2 3 2 2 3 3 3 3 4 4 4 4 5
8 8 6 5 4 4 5 5 5 5 4 4 6 8 8 8 9 8 7 6 5 5 3 2 2 2 2 2 3 2 3 3 3 2 2 3 3 3 4 4 4 5 5
7 5 5 5 5 5 5 5 5 6 5 4 4 5 7 7 8 8 7 4 3 3 3 3 2 2 2 2 2 2 3 3 3 3 3 3 4 4 4 5 5 7 6
7 10 8 6 6 6 5 6 5 5 5 4 4 3 3 5 5 5 4 3 3 3 3 3 3 3 3 3 3 2 3 3 3 3 3 4 4 4 5 6 5 6 5
5 7 10 7 6 6 6 6 5 5 5 4 4 4 5 4 4 4 4 4 3 3 3 3 3 4 4 4 4 3 4 3 3 3 4 4 5 5 5 5 6 6 6
5 5 6 6 6 6 6 5 5 5 5 5 4 5 8 5 4 4 4 4 4 3 3 3 3 3 3 3 4 4 4 4 5 5 5 5 6 6 6 6 6 6 6
6 6 6 6 6 7 7 6 5 5 5 4 4 4 4 4 4 4 4 4 3 3 3 3 3 4 4 4 4 3 4 5 5 6 6 6 6 6 6 7 8 8 7
6 7 6 6 6 6 6 5 5 5 5 5 5 4 4 4 4 4 4 4 4 4 4 3 4 5 7 5 4 4 4 6 6 6 7 7 8 7 7 7 8 9 8
7 7 6 6 6 6 6 5 5 5 5 5 4 4 4 4 4 4 4 4 5 5 6 5 4 5 7 8 7 7 8 9 8 7 7 6 8 8 8 8 7 8 8
7 7 6 5 5 5 5 5 5 4 4 4 4 3 3 4 4 4 4 4 5 5 5 5 6 7 8 7 9 10 9 10 10 9 6 6 7 7 7 6 8 7 8
Wind_Direction
183 183 180 182 183 179 181 184 183 186 184 181 183 183 186 187 184 183 191 189 192 202 201 195 209 201 194 195 174 164 171 161 195 260 261 264 210 217 207 219 227 225 232
183 181 181 179 175 178 182 182 179 182 185 184 182 185 191 189 185 186 197 197 196 203 208 204 216 205 202 204 188 185 189 182 180 232 270 265 235 228 218 222 229 227 230
172 176 178 179 176 181 184 183 182 181 180 182 180 185 188 184 184 189 193 197 200 205 206 205 213 200 211 212 203 202 207 198 176 196 247 261 266 260 245 253 249 249 246
169 168 176 180 178 182 182 180 180 177 176 176 179 181 180 178 183 190 190 196 206 211 208 205 205 200 209 210 209 212 207 202 192 199 239 257 261 265 224 248 271 261 261
160 165 172 168 166 168 172 172 162 160 165 157 155 160 165 170 189 195 191 190 198 211 211 207 208 208 208 207 207 207 199 201 211 223 243 255 257 255 241 235 247 265 267
158 163 162 156 156 159 162 154 144 143 141 139 146 152 160 184 198 193 186 178 188 200 213 219 216 216 219 215 213 205 194 201 216 223 235 238 248 240 240 237 240 254 272
159 159 157 153 148 150 152 141 142 146 143 143 150 151 164 176 170 174 183 176 186 196 208 218 230 227 217 224 229 229 227 226 215 209 227 238 240 234 229 241 235 232 242
152 152 152 151 150 148 141 144 150 145 147 154 154 158 154 157 160 165 169 162 159 178 194 194 200 235 244 213 217 230 246 252 241 228 231 243 244 239 226 234 240 248 259
148 153 158 157 153 152 151 155 152 139 137 140 135 134 131 107 118 152 150 127 129 155 168 150 164 177 260 200 194 248 277 282 275 259 255 261 264 261 246 231 242 247 269
151 150 145 145 143 143 144 142 134 130 136 128 113 109 116 102 82 113 138 122 123 120 62 40 91 143 327 72 189 229 267 279 302 315 303 294 282 276 260 233 230 238 254
129 117 113 121 131 134 131 124 117 115 112 109 101 84 78 75 75 83 96 103 122 112 73 6 344 350 348 329 260 224 246 274 292 293 301 310 314 306 293 264 242 233 241
105 102 99 97 105 107 106 103 102 109 107 103 99 85 66 60 65 71 78 82 90 109 108 295 306 345 358 357 355 309 298 312 320 330 322 310 308 302 295 288 273 258 247
97 93 88 85 83 90 100 103 95 95 102 101 100 95 77 53 51 60 64 64 60 70 24 355 357 360 6 6 6 355 352 1 352 318 296 287 280 281 291 300 299 289 279
97 93 87 84 76 68 71 79 91 93 103 106 107 107 92 60 40 35 41 47 47 48 33 23 19 15 14 356 352 359 2 330 284 280 282 283 292 299 295 289 289 299 298
88 87 85 85 86 77 67 57 69 61 89 114 116 116 108 84 23 54 71 54 46 42 41 40 37 29 23 15 7 355 352 356 324 303 300 302 304 304 298 297 286 288 283
86 84 86 92 93 94 92 72 53 65 70 77 92 104 87 93 91 72 67 68 65 69 70 55 35 25 19 2 350 344 342 327 310 302 300 298 301 301 300 300 292 284 282
80 82 84 88 95 99 99 99 85 55 56 61 66 71 80 80 72 67 63 62 58 65 60 41 23 4 349 341 336 326 317 310 309 307 303 305 304 303 303 303 301 295 288
73 74 78 80 82 89 92 92 94 94 73 43 41 56 67 69 63 59 59 59 45 41 41 22 359 345 339 334 330 321 314 320 324 317 312 308 305 304 305 302 299 295 295
68 67 69 71 72 77 82 85 84 83 81 71 55 43 53 62 54 47 49 54 41 21 13 6 351 338 331 333 330 325 323 324 325 322 316 313 310 305 299 296 293 292 291
64 67 73 73 69 71 75 80 81 81 79 74 66 47 37 50 44 31 33 36 35 19 7 1 355 354 352 350 346 345 343 336 333 329 321 317 312 306 300 299 297 296 292
63 65 67 71 67 70 75 78 82 83 79 71 60 57 68 65 58 45 37 33 31 19 8 5 4 2 359 349 343 342 337 326 323 320 317 312 310 306 300 296 294 291 292
61 64 68 73 73 72 73 76 78 78 77 75 58 51 55 57 55 48 35 26 25 23 14 11 8 1 353 348 341 335 332 330 327 322 315 309 306 301 298 296 296 294 291
65 70 70 69 72 74 71 68 72 74 73 70 64 58 55 52 45 37 26 15 9 6 5 9 3 354 354 353 350 344 336 328 320 313 310 306 304 302 299 298 297 299 297
68 73 74 70 70 71 72 68 67 68 68 65 61 60 57 50 41 33 22 9 4 2 2 4 4 0 0 357 350 346 337 325 318 308 304 300 299 297 297 297 296 295 295
68 70 70 70 72 73 72 69 67 66 66 66 62 56 49 42 32 23 15 14 10 5 3 2 5 4 358 349 345 342 334 327 319 314 304 295 293 294 296 297 296 298 298
67 70 71 71 71 70 71 70 68 67 65 64 64 59 47 37 27 19 13 13 10 3 360 360 2 1 353 346 340 338 331 326 322 318 308 294 293 294 300 298 300 303 304